Retour au catalogue

STARLINK-30036

ActifCommunicationsVLEO
NORAD 56692·PAYLOAD·🇺🇸 United States

Lancé May 19, 2023 depuis Cape Canaveral Space Force Station

Loading…

Prochains Passages (prochaines 24 heures)

TLE

FraisSource: CelesTrak SupGP

Époque: Sep 14, 2026, 21:10 UTC

1 56692C 23067E   26257.88243056 -.00023617  00000+0 -85557-3 0  2574
2 56692  43.0012 292.7679 0001466 260.4870 156.9433 15.27583568    18

Suivez STARLINK-30036 en temps réel avec AllMySat

Download on the App Store